Previsão horária em Abakumovka

Hoje, 18 Abril, Domingo

Tempo Temperatura Precipitação Vento Pressão Humidade
00:00 +7°C° 0 mm 1 m/s 750 mmHg 88%
01:00 +6°C° 0 mm 2 m/s 750 mmHg 88%
02:00 +5°C° 0 mm 2 m/s 750 mmHg 88%
03:00 +5°C° 0 mm 2 m/s 750 mmHg 89%
04:00 +5°C° 0 mm 2 m/s 750 mmHg 88%
05:00 +5°C° 0 mm 2 m/s 750 mmHg 88%
06:00 +5°C° 0 mm 2 m/s 750 mmHg 88%
07:00 +6°C° 0 mm 2 m/s 750 mmHg 79%
08:00 +8°C° 0 mm 2 m/s 750 mmHg 70%
09:00 +9°C° 0 mm 2 m/s 750 mmHg 62%
10:00 +10°C° 0 mm 2 m/s 750 mmHg 57%
11:00 +12°C° 0 mm 2 m/s 750 mmHg 53%
12:00 +13°C° 0 mm 2 m/s 750 mmHg 48%
13:00 +13°C° 0 mm 2 m/s 750 mmHg 48%
14:00 +13°C° 0 mm 2 m/s 750 mmHg 48%
15:00 +13°C° 0 mm 2 m/s 750 mmHg 48%
16:00 +13°C° 0 mm 2 m/s 750 mmHg 51%
17:00 +13°C° 0 mm 1 m/s 750 mmHg 53%
18:00 +13°C° 0 mm 1 m/s 750 mmHg 56%
19:00 +12°C° 0 mm 1 m/s 750 mmHg 59%
20:00 +11°C° 0 mm 1 m/s 750 mmHg 62%
21:00 +10°C° 0 mm 1 m/s 750 mmHg 64%
22:00 +10°C° 0 mm 1 m/s 749 mmHg 65%
23:00 +9°C° 0 mm 1 m/s 749 mmHg 66%

Amanhã, 19 Abril, Segunda-feira

Tempo Temperatura Precipitação Vento Pressão Humidade
00:00 +9°C° 0 mm 1 m/s 749 mmHg 67%
01:00 +9°C° 0 mm 1 m/s 749 mmHg 68%
02:00 +9°C° 0 mm 1 m/s 749 mmHg 69%
03:00 +9°C° 0 mm 1 m/s 749 mmHg 69%
04:00 +9°C° 0 mm 1 m/s 749 mmHg 71%
05:00 +9°C° 0 mm 1 m/s 749 mmHg 72%
06:00 +9°C° 0 mm 1 m/s 749 mmHg 73%
07:00 +9°C° 0.1 mm 1 m/s 749 mmHg 70%
08:00 +9°C° 0.1 mm 2 m/s 749 mmHg 68%
09:00 +10°C° 0.1 mm 2 m/s 749 mmHg 65%
10:00 +12°C° 0.2 mm 2 m/s 748 mmHg 61%
11:00 +13°C° 0.2 mm 1 m/s 748 mmHg 57%
12:00 +14°C° 0.2 mm 1 m/s 748 mmHg 53%
13:00 +14°C° 0.2 mm 2 m/s 748 mmHg 52%
14:00 +14°C° 0.2 mm 2 m/s 748 mmHg 52%
15:00 +14°C° 0.2 mm 3 m/s 748 mmHg 51%
16:00 +13°C° 0.3 mm 4 m/s 748 mmHg 60%
17:00 +12°C° 0.3 mm 5 m/s 748 mmHg 68%
18:00 +9°C° 0.3 mm 6 m/s 748 mmHg 76%
19:00 +9°C° 0.1 mm 6 m/s 748 mmHg 79%
20:00 +8°C° 0.1 mm 6 m/s 748 mmHg 82%
21:00 +7°C° 0.1 mm 5 m/s 749 mmHg 85%
22:00 +7°C° 0.1 mm 5 m/s 748 mmHg 86%
23:00 +7°C° 0.1 mm 5 m/s 748 mmHg 88%

Depois de amanhã, 20 Abril, Terça-feira

Tempo Temperatura Precipitação Vento Pressão Humidade
00:00 +7°C° 0.1 mm 5 m/s 748 mmHg 89%
01:00 +7°C° 0.1 mm 5 m/s 748 mmHg 90%
02:00 +7°C° 0.1 mm 5 m/s 748 mmHg 90%
03:00 +7°C° 0.1 mm 5 m/s 748 mmHg 91%
04:00 +6°C° 0.1 mm 5 m/s 748 mmHg 91%
05:00 +6°C° 0.1 mm 5 m/s 748 mmHg 91%
06:00 +6°C° 0.1 mm 5 m/s 748 mmHg 90%
07:00 +5°C° 0 mm 6 m/s 748 mmHg 90%
08:00 +5°C° 0 mm 6 m/s 748 mmHg 89%
09:00 +5°C° 0 mm 6 m/s 748 mmHg 88%
10:00 +7°C° 0 mm 6 m/s 747 mmHg 87%
11:00 +6°C° 0 mm 7 m/s 747 mmHg 86%
12:00 +6°C° 0 mm 8 m/s 747 mmHg 85%
13:00 +6°C° 0.1 mm 8 m/s 746 mmHg 86%
14:00 +5°C° 0.1 mm 8 m/s 746 mmHg 86%
15:00 +5°C° 0.1 mm 9 m/s 745 mmHg 86%
16:00 +3°C° 1.7 mm 10 m/s 744 mmHg 88%
17:00 +3°C° 1.7 mm 11 m/s 743 mmHg 89%
18:00 +3°C° 1.7 mm 12 m/s 741 mmHg 91%
19:00 +4°C° 1.2 mm 12 m/s 741 mmHg 91%
20:00 +4°C° 1.2 mm 12 m/s 741 mmHg 91%
21:00 +5°C° 1.2 mm 12 m/s 740 mmHg 91%
22:00 +7°C° 0.6 mm 11 m/s 740 mmHg 92%
23:00 +7°C° 0.6 mm 10 m/s 739 mmHg 93%

21 Abril, Quarta-feira

Tempo Temperatura Precipitação Vento Pressão Humidade
00:00 +8°C° 0.6 mm 9 m/s 739 mmHg 94%
01:00 +8°C° 0.4 mm 9 m/s 739 mmHg 91%
02:00 +8°C° 0.4 mm 9 m/s 738 mmHg 88%
03:00 +8°C° 0.4 mm 9 m/s 738 mmHg 84%
04:00 +8°C° 0.1 mm 9 m/s 738 mmHg 86%
05:00 +7°C° 0.1 mm 9 m/s 738 mmHg 87%
06:00 +6°C° 0.1 mm 10 m/s 738 mmHg 88%
07:00 +6°C° 0.1 mm 9 m/s 739 mmHg 87%
08:00 +5°C° 0.1 mm 9 m/s 740 mmHg 85%
09:00 +3°C° 0.1 mm 9 m/s 741 mmHg 84%
10:00 +5°C° 0 mm 8 m/s 742 mmHg 82%
11:00 +5°C° 0 mm 8 m/s 743 mmHg 81%
12:00 +6°C° 0 mm 7 m/s 744 mmHg 79%
13:00 +8°C° 0 mm 7 m/s 744 mmHg 75%
14:00 +9°C° 0 mm 6 m/s 745 mmHg 70%
15:00 +10°C° 0 mm 5 m/s 746 mmHg 66%
16:00 +10°C° 0.1 mm 5 m/s 746 mmHg 68%
17:00 +11°C° 0.1 mm 4 m/s 746 mmHg 69%
18:00 +11°C° 0.1 mm 4 m/s 747 mmHg 71%
19:00 +10°C° 0.1 mm 3 m/s 747 mmHg 75%
20:00 +9°C° 0.1 mm 3 m/s 748 mmHg 80%
21:00 +8°C° 0.1 mm 3 m/s 748 mmHg 84%
22:00 +7°C° 0 mm 3 m/s 748 mmHg 86%
23:00 +5°C° 0 mm 3 m/s 749 mmHg 88%

22 Abril, Quinta-feira

Tempo Temperatura Precipitação Vento Pressão Humidade
00:00 +5°C° 0 mm 3 m/s 749 mmHg 89%
01:00 +4°C° 0 mm 3 m/s 749 mmHg 89%
02:00 +4°C° 0 mm 3 m/s 750 mmHg 89%
03:00 +3°C° 0 mm 3 m/s 750 mmHg 90%
04:00 +3°C° 0 mm 3 m/s 750 mmHg 88%
05:00 +3°C° 0 mm 3 m/s 751 mmHg 87%
06:00 +3°C° 0 mm 3 m/s 751 mmHg 86%
07:00 +5°C° 0 mm 4 m/s 751 mmHg 79%
08:00 +7°C° 0 mm 4 m/s 752 mmHg 71%
09:00 +9°C° 0 mm 5 m/s 752 mmHg 64%
10:00 +10°C° 0 mm 5 m/s 752 mmHg 60%
11:00 +13°C° 0 mm 5 m/s 752 mmHg 55%
12:00 +14°C° 0 mm 5 m/s 752 mmHg 51%
13:00 +14°C° 0 mm 5 m/s 752 mmHg 49%
14:00 +14°C° 0 mm 5 m/s 752 mmHg 48%
15:00 +15°C° 0 mm 4 m/s 752 mmHg 46%
16:00 +14°C° 0 mm 4 m/s 752 mmHg 51%
17:00 +13°C° 0 mm 3 m/s 752 mmHg 56%
18:00 +14°C° 0 mm 2 m/s 752 mmHg 61%
19:00 +13°C° 0 mm 2 m/s 752 mmHg 61%
20:00 +13°C° 0 mm 2 m/s 753 mmHg 60%
21:00 +11°C° 0 mm 3 m/s 753 mmHg 60%
22:00 +11°C° 0 mm 3 m/s 753 mmHg 62%
23:00 +10°C° 0 mm 2 m/s 753 mmHg 64%

23 Abril, Sexta-feira

Tempo Temperatura Precipitação Vento Pressão Humidade
00:00 +10°C° 0 mm 2 m/s 753 mmHg 66%
01:00 +10°C° 0 mm 2 m/s 752 mmHg 69%
02:00 +10°C° 0 mm 2 m/s 752 mmHg 71%
03:00 +9°C° 0 mm 2 m/s 752 mmHg 74%
04:00 +9°C° 0 mm 2 m/s 752 mmHg 76%
05:00 +9°C° 0 mm 3 m/s 752 mmHg 79%
06:00 +9°C° 0 mm 3 m/s 752 mmHg 81%
07:00 +10°C° 0 mm 3 m/s 752 mmHg 75%
08:00 +11°C° 0 mm 4 m/s 752 mmHg 69%
09:00 +13°C° 0 mm 5 m/s 752 mmHg 63%
10:00 +14°C° 0.2 mm 5 m/s 752 mmHg 58%
11:00 +15°C° 0.2 mm 5 m/s 752 mmHg 52%
12:00 +16°C° 0.2 mm 5 m/s 751 mmHg 47%
13:00 +16°C° 0.1 mm 5 m/s 751 mmHg 49%
14:00 +15°C° 0.1 mm 4 m/s 751 mmHg 52%
15:00 +15°C° 0.1 mm 4 m/s 750 mmHg 54%
16:00 +14°C° 0.1 mm 4 m/s 750 mmHg 57%
17:00 +14°C° 0.1 mm 4 m/s 750 mmHg 60%
18:00 +13°C° 0.1 mm 4 m/s 750 mmHg 63%
19:00 +12°C° 0.1 mm 4 m/s 749 mmHg 68%
20:00 +11°C° 0.1 mm 4 m/s 749 mmHg 73%
21:00 +10°C° 0.1 mm 4 m/s 749 mmHg 77%
22:00 +10°C° 0.1 mm 4 m/s 749 mmHg 78%
23:00 +8°C° 0.1 mm 4 m/s 748 mmHg 79%
Mostrar mais